Aberdeen, SD

6:12 PM CST on January 19, 2017 (GMT -0600)
Aberdeen Regional

Weather History for KABR - September, 2013

Change the Weather History Date:

Friday, September 27, 2013

  Actual Average Record
Temperature  
Mean Temperature 55 °F 54 °F  
Max Temperature 59 °F 67 °F 95 °F (1952)
Min Temperature 50 °F 41 °F 22 °F (1900)
Degree Days  
Heating Degree Days 10 12  
Month to date heating degree days 92 187  
Since 1 July heating degree days 143 238  
Cooling Degree Days 0 0  
Month to date cooling degree days 91 39  
Year to date cooling degree days 580 522  
Growing Degree Days 2 (Base 50)    
Moisture  
Dew Point 47 °F    
Average Humidity 81    
Maximum Humidity 93    
Minimum Humidity 69    
Precipitation  
Precipitation 0.40 in 0.07 in 1.02 in (1929)
Month to date precipitation 1.92 1.97  
Year to date precipitation 15.68 18.26  
Sea Level Pressure  
Sea Level Pressure 29.77 in    
Wind  
Wind Speed 11 mph (North)    
Max Wind Speed 18 mph    
Max Gust Speed 24 mph    
Visibility 9 miles    
Events Rain    
T = Trace of Precipitation, MM = Missing Value Source: NWS Daily Summary

Daily Weather History Graph

Daily Weather History Graph

Search for Another Location

Airport or City:

Trip Planner

Search our weather history database for the weather conditions in past years. The results will help you decide how hot, cold, wet, or windy it might be!

Date:

Astronomy

Sep. 27, 2013 Rise Set
Actual Time 7:27 AM CDT 7:21 PM CDT
Civil Twilight 6:57 AM CDT 7:50 PM CDT
Nautical Twilight 6:23 AM CDT 8:24 PM CDT
Astronomical Twilight 5:48 AM CDT 8:59 PM CDT
Moon 12:08 AM CDT (9/27) 3:15 PM CDT (9/27)
Length of Visible Light 12h 52m
Length of Day
11h 53m
Last Quarter, 45% of the Moon is Illuminated
Sep 27
Last Quarter
Oct 4
New
Oct 11
First Quarter
Oct 18
Full
Oct 26
Last Quarter

Hourly Weather History & Observations

Time (CDT) Temp. Dew Point Humidity Pressure Visibility Wind Dir Wind Speed Gust Speed Precip Events Conditions
12:53 AM 60.1 °F 50.0 °F 69% 29.77 in 10.0 mi North 12.7 mph - N/A   Overcast
1:53 AM 57.9 °F 48.9 °F 72% 29.77 in 10.0 mi North 13.8 mph - N/A   Scattered Clouds
2:53 AM 55.9 °F 46.9 °F 72% 29.77 in 10.0 mi North 12.7 mph - N/A   Partly Cloudy
3:53 AM 55.0 °F 46.0 °F 72% 29.75 in 10.0 mi North 16.1 mph - N/A   Mostly Cloudy
4:53 AM 54.0 °F 46.0 °F 75% 29.75 in 10.0 mi North 16.1 mph 24.2 mph N/A   Partly Cloudy
5:53 AM 54.0 °F 45.0 °F 72% 29.75 in 10.0 mi North 11.5 mph 20.7 mph N/A   Overcast
6:53 AM 54.0 °F 44.1 °F 69% 29.75 in 10.0 mi North 12.7 mph 20.7 mph N/A   Overcast
7:02 AM 53.6 °F 44.6 °F 72% 29.75 in 10.0 mi North 12.7 mph - N/A   Overcast
7:39 AM 53.6 °F 44.6 °F 72% 29.74 in 10.0 mi NNE 10.4 mph 18.4 mph N/A   Overcast
7:53 AM 53.1 °F 44.1 °F 71% 29.73 in 10.0 mi NNE 12.7 mph 18.4 mph N/A   Overcast
8:53 AM 54.0 °F 45.0 °F 72% 29.74 in 10.0 mi North 12.7 mph - N/A   Overcast
9:53 AM 53.1 °F 45.0 °F 74% 29.75 in 10.0 mi NNE 17.3 mph - N/A   Overcast
10:53 AM 53.1 °F 46.0 °F 77% 29.75 in 10.0 mi North 16.1 mph - N/A   Overcast
11:53 AM 54.0 °F 46.0 °F 75% 29.74 in 10.0 mi North 17.3 mph - N/A   Overcast
12:53 PM 53.1 °F 46.0 °F 77% 29.75 in 10.0 mi NNW 16.1 mph - N/A   Overcast
1:53 PM 53.1 °F 46.0 °F 77% 29.75 in 10.0 mi North 13.8 mph - N/A   Overcast
2:53 PM 53.1 °F 46.0 °F 77% 29.77 in 10.0 mi NNW 11.5 mph - N/A   Overcast
3:53 PM 52.0 °F 46.0 °F 80% 29.79 in 10.0 mi North 11.5 mph - N/A   Overcast
4:46 PM 51.8 °F 48.2 °F 88% 29.79 in 8.0 mi NW 10.4 mph - N/A   Overcast
4:53 PM 51.1 °F 48.0 °F 89% 29.81 in 5.0 mi NW 9.2 mph - N/A   Overcast
5:13 PM 51.8 °F 48.2 °F 88% 29.80 in 7.0 mi NW 8.1 mph - N/A   Overcast
5:51 PM 51.8 °F 48.2 °F 88% 29.78 in 10.0 mi North 9.2 mph - N/A   Overcast
5:53 PM 52.0 °F 48.9 °F 89% 29.80 in 10.0 mi NNW 8.1 mph - N/A   Overcast
6:18 PM 51.8 °F 48.2 °F 88% 29.79 in 10.0 mi North 6.9 mph - N/A   Overcast
6:27 PM 51.8 °F 48.2 °F 88% 29.80 in 10.0 mi North 5.8 mph - N/A   Overcast
6:53 PM 52.0 °F 48.9 °F 89% 29.78 in 10.0 mi North 6.9 mph - N/A   Overcast
7:12 PM 51.8 °F 48.2 °F 88% 29.81 in 10.0 mi North 5.8 mph - N/A   Overcast
7:46 PM 53.6 °F 48.2 °F 82% 29.80 in 10.0 mi Calm Calm - N/A   Overcast
7:53 PM 52.0 °F 48.9 °F 89% 29.82 in 10.0 mi WNW 3.5 mph - N/A   Overcast
8:53 PM 52.0 °F 48.9 °F 89% 29.82 in 9.0 mi WNW 5.8 mph - 0.00 in Rain Light Rain
9:53 PM 52.0 °F 50.0 °F 93% 29.81 in 10.0 mi NE 4.6 mph - 0.01 in Rain Light Rain
10:16 PM 51.8 °F 50.0 °F 94% 29.81 in 10.0 mi Calm Calm - 0.00 in Rain Light Rain
10:53 PM 51.1 °F 48.9 °F 92% 29.78 in 10.0 mi NNW 8.1 mph - 0.00 in Rain Light Rain
11:35 PM 50.0 °F 48.2 °F 94% 29.79 in 3.0 mi NW 6.9 mph - 0.11 in Rain Rain
11:53 PM 50.0 °F 48.9 °F 96% 29.81 in 3.0 mi NW 9.2 mph - 0.19 in Rain Rain